Location: Ansouis
(43.7377°N, 5.4640°E)
Time: 13:11:46
(UTC+00:00)

Daily predictions for brighter satellites

Satellite Brightness Start Highest point End
(mag) Time Altitude Azimuth Time Altitude Azimuth Time Altitude Azimuth
Cosmos 1634 Rocket 4.2 19:25:47 10° N 19:32:06 81° W 19:38:18 10° S
Meteor 2-13 Rocket 4.5 19:31:23 10° S 19:37:26 70° E 19:43:30 10° NNE
Cosmos 2221 2.8 19:33:35 10° N 19:37:47 49° ENE 19:41:58 10° SSE
ATLAS 2AS CENTAUR R/B 3.1 19:29:53 10° SSW 19:37:48 83° ESE 19:45:35 10° NE
Resurs 01 Rocket 2.3 19:36:00 10° SE 19:40:06 38° ENE 19:44:14 10° N
Cosmos 2058 2.9 19:37:24 10° S 19:41:33 74° E 19:45:45 10° NNE
Meteor 2-2 Rocket 4.3 19:35:52 10° N 19:41:43 78° E 19:47:24 10° SSE
Cosmos 773 Rocket 4.0 19:38:31 10° S 19:43:40 65° ESE 19:48:48 10° NNE
USA 186 3.6 19:43:01 10° SSW 19:45:49 29° W 19:48:27 10° NW
Cosmos 1606 3.2 19:43:17 10° N 19:46:54 41° ENE 19:50:30 10° SSE
BREEZE-M DEB (TANK) 2.6 19:42:32 10° WSW 19:47:13 71° NNW 19:49:15 10° ENE
ATLAS 3B R/B 3.3 19:41:00 10° NNW 19:47:54 52° NE 19:55:04 10° ESE
Cosmos 371 Rocket 4.2 19:44:03 10° N 19:48:28 34° ENE 19:52:50 10° SE
RESURS DK-1 2.3 19:47:31 10° SSW 19:51:37 63° ESE 19:55:45 10° NNE
Cosmos 1633 3.0 19:48:31 10° SSE 19:51:54 40° E 19:55:18 10° NNE
OBJECT-B 2.6 19:50:15 10° SSW 19:53:08 31° W 19:56:03 10° NNW
IRS-1A Rocket 4.3 19:49:33 10° SSE 19:55:05 90° SW 20:00:38 10° NNW
Cosmos 2151 4.0 19:53:07 10° SSE 19:56:41 27° E 20:00:16 10° NNE
Cosmos 1825 3.5 19:54:40 10° SSW 19:58:14 42° WNW 20:01:50 10° N
Cosmos 2369 3.7 19:52:55 10° NNW 19:58:37 89° ENE 20:04:16 10° SSE
USA 276 4.0 19:56:11 10° NW 19:58:57 27° N 20:01:42 10° ENE
Cosmos 1980 Rocket 2.3 19:55:04 10° NNW 20:00:42 69° ENE 20:06:07 11° SSE
MOS 1 4.5 19:55:39 10° S 20:01:19 79° WSW 20:07:00 10° NNW
BREEZE-M DEB (TANK) 3.0 19:58:20 10° SW 20:01:27 58° SE 20:10:56 10° ENE
Cosmos 1437 3.9 19:59:39 10° NNW 20:02:14 36° W 20:04:47 10° SSW
COSMOS 2406 4.1 19:58:55 10° SW 20:04:29 55° WNW 20:10:06 10° NNE
Cosmos 1242 Rocket 4.0 20:01:39 10° NNW 20:04:58 36° W 20:08:14 10° SSW
SPOT 5 4.4 20:02:25 10° ESE 20:05:11 17° ENE 20:07:58 10° NNE
MetOp-B 4.5 20:01:02 10° SE 20:06:10 51° ENE 20:11:21 10° N
ARIANE 5 R/B 4.2 20:03:38 12° ESE 20:06:42 22° ENE 20:10:06 10° NNE
Terra 3.8 20:05:03 10° E 20:07:40 15° ENE 20:10:17 10° NNE
Cosmos 158 Rocket 4.5 20:04:22 10° S 20:09:04 38° ESE 20:13:56 10° NE
SPOT 3 Rocket 3.7 20:04:21 10° SSE 20:09:29 63° ENE 20:14:39 10° N
Cosmos 2322 Rocket 3.8 20:06:05 10° N 20:10:22 21° NE 20:14:35 10° E
Gbstr 26 Del rocket 4.1 20:10:32 10° NW 20:13:56 32° NNE 20:17:32 10° E
Spot 2 Rocket 4.3 20:11:55 14° SE 20:15:42 35° ENE 20:20:20 10° N
Meteor 2-3 Rocket 4.2 20:13:04 10° SSE 20:18:17 41° E 20:23:35 10° NNE
Cosmos 332 Rocket 4.3 20:20:43 10° N 20:25:26 45° ENE 20:28:37 19° SE
Cosmos 1076 Rocket 3.6 20:21:30 10° S 20:25:50 83° W 20:30:13 10° N
ISS -3.1 20:23:08 10° NW 20:26:27 49° NNE 20:28:39 18° E
ERS-2 3.2 20:24:36 10° N 20:28:08 48° WNW 20:31:37 10° SSW
Cosmos 1151 Rocket 4.5 20:25:41 10° NNE 20:29:11 23° ENE 20:31:00 18° ESE
Cosmos 1092 Rocket 4.2 20:24:12 10° SSE 20:30:16 55° E 20:36:25 10° NNE
Landsat 7 4.0 20:27:40 10° S 20:32:19 71° WSW 20:37:06 10° NNW
Cosmos 1782 3.9 20:31:03 10° NNE 20:34:37 30° ENE 20:36:11 23° ESE
Cosmos 1538 Rocket 4.0 20:31:04 10° SSW 20:36:17 88° WNW 20:41:30 10° NNE
Meteor 2-19 Rocket 4.4 20:32:30 10° S 20:38:31 74° E 20:44:34 10° NNE
SL-16 R/B 2.9 20:33:12 10° NNW 20:38:34 41° ENE 20:42:00 20° ESE
ERBS 4.2 20:39:14 10° WNW 20:41:41 20° SW 20:43:15 15° SSW
Cosmos 2098 Rocket 3.3 20:39:06 10° SSW 20:42:00 45° WNW 20:45:22 10° N
Atlas Centaur 2 3.4 20:42:04 10° SSW 20:42:46 11° SSW 20:42:46 11° SSW
Cosmos 2026 Rocket 4.1 20:39:16 14° SSE 20:44:36 58° E 20:50:44 10° NNE
Cosmos 1271 Rocket 2.9 20:44:24 10° N 20:48:21 58° ENE 20:50:01 31° SE
Nadezhda 4 Rocket 4.5 20:45:52 10° SSW 20:51:56 62° W 20:58:07 10° N
GP-B 3.1 20:47:49 10° N 20:52:14 62° E 20:54:30 27° SSE
CZ-2C R/B 3.7 20:47:42 10° NNE 20:52:15 84° WNW 20:56:43 10° SSW
Cosmos 1627 Rocket 4.5 20:52:30 14° S 20:58:04 76° E 21:04:22 10° N
Cosmos 304 Rocket 3.7 20:57:56 10° NNW 21:02:45 88° WSW 21:05:03 31° SSE
Okean 3 Rocket 3.8 21:04:44 35° SSE 21:06:14 52° E 21:10:37 10° NNE
SPOT 1/Viking Rocket 4.1 21:02:29 17° S 21:06:21 54° W 21:11:28 10° NNW
Cosmos 2082 Rocket 4.0 21:05:04 10° WSW 21:10:05 32° NW 21:15:09 10° N
USA 245 4.3 21:06:56 20° S 21:10:31 57° WSW 21:14:55 10° NNW
Cosmos 1428 Rocket 4.5 21:09:22 15° S 21:14:36 84° W 21:20:45 10° N
Resurs 01 Rocket 3.8 21:13:18 10° SW 21:16:42 21° W 21:20:08 10° NW
BREEZE-M DEB (TANK) 3.0 21:15:33 10° WNW 21:19:01 70° SSW 21:23:01 28° SE
BREEZE-M DEB (TANK) 4.2 21:16:24 10° WNW 21:20:23 69° SSW 21:26:51 25° SE
Cosmos 923 Rocket 4.1 21:17:39 11° SSW 21:22:45 79° WNW 21:28:08 10° NNE
Cosmos 2360 Rocket 2.9 21:18:03 10° NNW 21:23:23 42° ENE 21:25:36 29° ESE
Cosmos 1408 Rocket 4.0 21:24:14 41° ESE 21:24:33 41° E 21:28:39 10° NNE
Cosmos 1553 Rocket 3.9 21:21:52 10° N 21:27:57 72° E 21:30:30 37° SSE
Cosmos 2333 Rocket 3.7 21:25:33 10° N 21:30:14 26° NE 21:32:47 19° E
Meteor 2-14 Rocket 4.4 21:27:36 32° S 21:30:34 72° E 21:36:42 10° NNE
USA 276 2.5 21:32:20 10° WNW 21:35:05 62° NNW 21:35:05 62° NNW
Cosmos 2056 Rocket 3.7 21:30:46 10° NNW 21:36:07 62° ENE 21:37:36 44° SE
Cosmos 1812 2.5 21:33:10 10° N 21:37:02 79° E 21:37:16 74° SE
USA 267 3.2 21:32:03 10° NE 21:38:30 58° SE 21:44:55 10° SSW
ATLAS 3B R/B 3.7 21:31:58 10° NW 21:38:30 39° WSW 21:42:22 23° SSW
ERS-1 Rocket 3.4 21:40:38 33° SSW 21:42:37 54° W 21:47:34 10° NNW
Cosmos 2084 3.1 21:42:47 74° SE 21:42:47 74° SE 21:46:56 10° NE
ARIANE 5 R/B 3.6 21:41:11 28° SW 21:42:53 40° W 21:47:06 10° NNW
SPOT 5 3.2 21:41:37 37° SSW 21:42:54 49° W 21:47:08 10° NNW
SL-27 R/B 3.3 21:44:33 42° NE 21:44:33 42° NE 21:47:11 10° NNE
Cosmos 2228 Rocket 4.5 21:40:05 10° NNE 21:43:44 24° ENE 21:43:53 24° ENE
Cosmos 1980 Rocket 4.3 21:40:28 10° WNW 21:44:03 18° W 21:47:40 10° SW
Terra 1.9 21:43:31 46° S 21:44:50 71° WSW 21:49:36 10° NNW
NOSS 2-1 (C) 4.1 21:46:54 33° NE 21:46:54 33° NE 21:48:53 10° NE
Cosmos 1655 Rocket 4.1 21:43:53 41° SSE 21:45:58 60° E 21:52:16 10° NNE
Cosmos 1515 Rocket 3.5 21:44:57 10° N 21:49:23 68° E 21:49:44 64° ESE
NOSS 2-1 (D) 3.9 21:54:21 39° NNE 21:54:21 39° NNE 21:56:34 10° NE
Cosmos 2322 Rocket 2.3 21:49:20 10° NNW 21:54:57 69° WSW 21:56:28 47° S
Cosmos 1417 Rocket 4.5 21:48:41 10° N 21:55:03 86° W 21:57:19 43° S
Cosmos 2112 Rocket 4.4 21:54:10 23° SW 21:57:28 61° WNW 22:02:43 10° NNE
Cosmos 1371 Rocket 4.0 21:52:06 10° NNW 21:57:29 80° WSW 21:58:42 55° S
S3M 4.0 21:51:14 10° N 21:57:39 82° E 21:59:44 46° SSE
Cosmos 1680 Rocket 4.2 21:54:17 16° SW 21:58:20 52° WNW 22:03:29 10° NNE
H-2A R/B 3.4 21:56:02 10° N 22:00:15 81° WNW 22:00:38 72° SW
Gbstr 26 Del rocket 3.0 21:57:05 10° WNW 22:00:26 58° WSW 22:00:26 58° WSW
ISS -1.5 22:00:15 10° WNW 22:01:36 19° W 22:01:36 19° W
Cosmos 1862 3.7 22:02:44 54° WSW 22:03:07 57° W 22:07:03 10° N
COSMOS 2455 3.2 22:05:54 44° ESE 22:05:56 44° ESE 22:11:36 10° NE
Cosmos 1151 Rocket 4.4 22:02:54 10° NNW 22:06:46 32° W 22:07:51 28° WSW
Cosmos 1328 Rocket 4.4 22:03:55 10° NNW 22:08:06 41° W 22:08:54 37° WSW
USA 234 3.9 22:07:28 20° E 22:11:52 52° NNE 22:18:11 10° NW
ALOS 2 4.1 22:13:01 25° ENE 22:13:08 25° ENE 22:16:44 10° NNE
COBE Rocket 3.9 22:16:53 60° E 22:17:00 60° ENE 22:21:36 10° N
Cosmos 2219 Rocket 2.8 22:12:36 10° NNW 22:17:59 45° ENE 22:19:12 39° E
IRIDIUM 106 4.2 22:16:07 10° N 22:21:21 70° E 22:21:45 67° ESE
SL-16 R/B 3.4 22:17:35 10° NW 22:22:31 31° WSW 22:23:52 28° SW
Cosmos 2333 4.1 22:18:48 10° NNW 22:24:25 72° ENE 22:25:16 61° ESE
COSMOS 2428 3.3 22:22:57 10° NNW 22:28:26 45° ENE 22:29:40 39° E
Cosmos 1805 Rocket 3.9 22:32:29 59° NE 22:32:29 59° NE 22:36:19 10° NNE
Cosmos 292 Rocket 3.8 22:30:13 10° NNW 22:34:52 66° W 22:34:52 66° W
Cosmos 1048 Rocket 4.2 22:36:20 54° E 22:36:20 54° E 22:40:52 10° NNE
Cosmos 1500 Rocket 4.2 22:43:12 50° W 22:43:14 50° WNW 22:47:34 10° N
CZ-3B R/B 2.7 22:36:05 10° NW 22:43:55 51° NNE 22:44:24 48° NE
ATLAS 5 CENTAUR R/B 3.2 22:42:22 10° NNW 22:47:36 43° NE 22:49:59 30° E
Meteor 1-27 Rocket 3.9 22:44:10 10° NNW 22:49:43 60° W 22:50:25 56° SW
Cosmos 972 Rocket 4.2 22:55:31 62° WSW 22:56:09 68° WNW 23:01:13 10° NNE
NOSS 3-1 (C) 4.0 22:48:32 10° NW 22:56:11 83° SW 22:58:46 50° SSE
Cosmos 2285 Rocket 3.8 22:57:42 10° NNW 23:04:02 81° WSW 23:04:48 69° S
Meteor 1-20 Rocket 4.1 23:05:25 74° SW 23:05:50 80° W 23:11:32 10° N
Cosmos 2360 Rocket 3.3 23:02:21 10° NW 23:07:12 30° WSW 23:07:21 30° WSW
Cosmos 2315 Rocket 4.3 23:02:03 10° NNW 23:08:11 54° W 23:09:19 48° SW
Cosmos 1452 Rocket 3.7 23:03:30 10° NNW 23:08:29 62° W 23:08:29 62° W
USA 229 DEB 3.9 23:02:25 10° NW 23:09:48 80° NE 23:12:08 49° SE
USA 229 3.9 23:02:30 10° NW 23:09:54 80° NE 23:12:15 49° SE
Sich 1 3.7 23:14:38 50° NW 23:14:38 50° NW 23:18:20 10° N
Cosmos 2333 Rocket 2.4 23:09:19 10° NNW 23:14:46 55° WSW 23:14:46 55° WSW
Cosmos 1633 Rocket 3.7 23:17:04 51° NNE 23:17:04 51° NNE 23:20:25 10° NNE
APEX 4.3 23:16:51 62° E 23:16:51 62° E 23:22:57 10° NNE
Cosmos 1666 Rocket 4.1 23:20:10 58° N 23:20:10 58° N 23:23:46 10° N
USA 267 4.0 23:15:09 10° NE 23:21:27 51° NNW 23:27:43 10° WSW
SL-08 R/B 4.3 23:21:43 72° SSE 23:22:19 80° E 23:28:30 10° N
Cosmos 2322 4.2 23:20:37 10° NW 23:25:53 47° WSW 23:25:53 47° WSW
NOSS 3-1 (A) 4.0 23:22:39 10° NW 23:30:18 82° SW 23:32:41 53° SSE
Cosmos 2297 Rocket 2.8 23:32:09 44° E 23:32:09 44° E 23:36:59 10° NE
Meteor 1-18 Rocket 4.1 23:26:15 10° NNW 23:32:08 84° W 23:32:22 81° SSW
Cosmos 1110 Rocket 4.1 23:30:41 10° NNW 23:35:37 67° WNW 23:35:37 67° WNW
Cosmos 2237 Rocket 2.5 23:32:37 10° NNW 23:38:14 59° ENE 23:38:58 54° E
Cosmos 1331 Rocket 4.2 23:37:10 10° NNW 23:41:53 63° WNW 23:41:53 63° WNW
Cosmos 2227 Rocket 2.9 23:43:37 41° E 23:43:37 41° E 23:48:25 10° NE
Cosmos 1745 Rocket 3.8 23:43:09 73° SSE 23:43:44 81° E 23:50:02 10° N
Cosmos 1862 Rocket 4.3 23:39:44 10° NNW 23:43:02 50° NNW 23:43:02 50° NNW
ALOS 2 4.1 23:50:25 28° WNW 23:50:25 28° WNW 23:53:17 10° NNW
COSMOS 2455 4.1 23:49:00 23° W 23:51:58 36° NW 23:57:30 10° NNE
